Back to catalog

CZ-6A DEB

AlivePO
NORAD 61290·DEBRIS·🇨🇳 China

Launched Aug 6, 2024 from Taiyuan Satellite Launch Center

Loading…

Next Passes (next 24 hours)

TLE

FreshSource: Space-Track

Epoch: Sep 14, 2026, 06:42 UTC

1 61290U 24140TB  26257.27972934  .00000228  00000-0  90570-4 0  9991
2 61290  88.9926 263.6086 0017813 255.1992 104.7228 14.25251343106344

Track CZ-6A DEB in real time with AllMySat

Download on the App Store